Regional Weather Roundup
Issued by NWS San Angelo, TX

Home | Current Version | Previous Version | Text Only | Print | Product List | Glossary Off
Versions: 1 2 3 4 5 6 7 8 9 10 11 12 13 14 15 16 17 18 19 20 21 22 23 24 25 26 27 28 29 30 31 32 33 34 35 36 37 38 39 40 41 42 43 44 45 46 47 48 49 50

000
ASUS44 KSJT 230110
RWRSJT
WEST CENTRAL TEXAS REGIONAL WEATHER ROUNDUP
NATIONAL WEATHER SERVICE SAN ANGELO TX
700 PM CST SAT NOV 22 2014

NOTE: "FAIR" INDICATES FEW OR NO CLOUDS BELOW 12,000 FEET WITH NO
SIGNIFICANT WEATHER AND/OR OBSTRUCTIONS TO VISIBILITY.

TXZ049-054-064>066-071>073-076>078-098-099-113-114-127-128-139-140-
154-155-168>170-230200
...LOCATIONS ACROSS WEST CENTRAL TEXAS...

CITY           SKY/WX    TMP DP  RH WIND       PRES   REMARKS
SAN ANGELO     MOCLDY    58  55  90 E7        29.81S
ABILENE        CLOUDY    56  55  97 SE9       29.79R
DYESS AFB      CLOUDY    55  51  87 NE7       29.77S
JUNCTION       PTCLDY    68  59  73 SW12G20   29.79R
SWEETWATER     CLOUDY    54  54 100 SE8       29.82F
BROWNWOOD      LGT RAIN  55  54  94 NE10G17   29.85F
COLEMAN        TSTM      55  55 100 E18       29.83S
SONORA         MOCLDY    64  45  48 W6        29.85R
OZONA          FAIR      61  41  48 W9G21     29.84S
BRADY          NOT AVBL
$$

TEXAS PANHANDLE/OKLAHOMA PANHANDLE

CITY           SKY/WX    TMP DP  RH WIND       PRES   REMARKS
AMARILLO       CLEAR     57  22  25 S16       29.70R
BORGER         CLEAR     54  48  80 S16G29    29.67R
CANADIAN       CLOUDY    55  54  96 S18G24    29.68S FOG
DALHART        CLEAR     51  16  24 S14       29.63F
DUMAS            N/A     47  17  30 S10       29.63F
GUYMON         NOT AVBL
HEREFORD       CLEAR     51  25  36 SE12      29.71R
PAMPA          DRIZZLE   51  51  98 S22       29.71S
PERRYTON       CLOUDY    54  50  87 S28G36    29.64S
$$

SOUTHERN PANHANDLE/SOUTH PLAINS/ROLLING PLAINS

CITY           SKY/WX    TMP DP  RH WIND       PRES   REMARKS
LUBBOCK        PTCLDY    54  51  90 S9        29.76R
SNYDER         CLOUDY    52  51  97 S6        29.81S
CHILDRESS      CLOUDY    54  52  93 SE16      29.75F
SEMINOLE       PTCLDY    56  32  40 W6        29.81S
$$

PERMIAN BASIN

CITY           SKY/WX    TMP DP  RH WIND       PRES   REMARKS
MIDLAND        CLEAR     59  55  87 CALM      29.79S
ODESSA         CLEAR     63  41  44 W6        29.80S
WINK           CLEAR     61  36  39 W9        29.80R
$$

FAR WEST/SOUTHWEST MOUNTAINS/TRANS PECOS

CITY           SKY/WX    TMP DP  RH WIND       PRES   REMARKS
ALPINE         CLEAR     57  34  42 W15       29.97R
DRYDEN           N/A     62  39  42 W6        29.80R
EL PASO        PTCLDY    63  22  20 W15       29.90F
FORT STOCKTON  CLEAR     60  39  45 SW10      29.84R
GUADALUPE PASS CLEAR     52  28  39 W24G30    29.92S
MARFA          CLEAR     54  32  43 W8        29.97R
PECOS          CLEAR     63  35  35 W13       29.83R
$$

DALLAS/FORT WORTH METROPLEX

CITY           SKY/WX    TMP DP  RH WIND       PRES   REMARKS
DFW AIRPORT    RAIN      57  57 100 SW15      29.86R FOG
FTW MEACHAM    HVY RAIN  60  56  86 N9        29.85F FOG
DAL-EXECUTIVE  HVY RAIN  63  60  90 SW12G17   29.89R FOG
GRAND PRAIRIE  NOT AVBL
ADDISON        RAIN      61  59  94 S8        29.89R
MESQUITE       LGT RAIN  61  61 100 S5        29.88R
LANCASTER      RAIN      60  58  92 W6        29.90R
$$

NORTH CENTRAL TEXAS

CITY           SKY/WX    TMP DP  RH WIND       PRES   REMARKS
SHRMAN/DENISON LGT RAIN  58  58 100 CALM      29.88R
GAINESVILLE    RAIN      58  57  97 S6        29.87F
BRIDGEPORT     RAIN      57  57 100 E9        29.84F
DENTON         RAIN      59  58  96 N7        29.86F FOG
WAXAHACHIE     HVY RAIN  60  60 100 CALM      29.89R
GRANBURY       RAIN      58  56  91 CALM      29.88F
$$

WESTERN NORTH TEXAS

CITY           SKY/WX    TMP DP  RH WIND       PRES   REMARKS
WICHITA FALLS  CLOUDY    55  54  96 E21       29.72F
VERNON         CLOUDY    57  54  88 E9        29.76F
BRECKENRIDGE   CLOUDY    57  56  97 SE17      29.79F
COMANCHE       CLOUDY    55  55 100 N7G20     29.89S
$$

CENTRAL AND SOUTH CENTRAL TEXAS

CITY           SKY/WX    TMP DP  RH WIND       PRES   REMARKS
AUSTIN/BERGSTM CLOUDY    64  64 100 NE3       29.74F
WACO           CLOUDY    61  60  97 NW9       29.82S
HILLSBORO      LGT RAIN  61  58  91 CALM      29.85R
TEMPLE         CLOUDY    61  55  82 NE9       29.79F
KILLEEN-GRAY   TSTM      61  59  94 NE9       29.79F VSB 1
FORT HOOD      TSTM      63  60  90 E6        29.80S
GEORGETOWN     CLOUDY    63  61  94 NE8       29.77F
LAGO VISTA     TSTM      62  60  94 NE3       29.81R
SAN MARCOS     MOCLDY    68  66  94 SE7       29.76F
NEW BRAUNFELS  MOCLDY    69  68  96 S9        29.74S
RANDOLPH AFB   DRIZZLE   69  66  92 SE5       29.75F
SAN ANTONIO    MOCLDY    70  66  87 SE7       29.75S
STINSON        MOCLDY    71  66  84 S6        29.72F
PLEASANTON     NOT AVBL
LA GRANGE      CLOUDY    70  68  95 S6        29.76F
GIDDINGS       CLOUDY    66  65  96 CALM      29.81S
$$

EAST TEXAS

CITY           SKY/WX    TMP DP  RH WIND       PRES   REMARKS
PARIS          CLOUDY    59  55  88 E6        29.87F
CLARKSVILLE    NOT AVBL
TYLER          LGT RAIN  63  61  93 E7        29.85S
LONGVIEW       LGT RAIN  65  59  81 SE8       29.87F
PALESTINE      LGT RAIN  63  62  97 E10       29.80F
NACOGDOCHES    CLOUDY    63  61  94 E8        29.85F
$$

TEXAS HILL COUNTRY AND EDWARDS PLATEAU

CITY           SKY/WX    TMP DP  RH WIND       PRES   REMARKS
LLANO          PTCLDY    61  61 100 E3        29.80F
HORSESHOE BAY  FAIR      61  61 100 SE3       29.76F
KERRVILLE      PTCLDY    64  61  92 CALM      29.79S
FREDERICKSBRG  PTCLDY    63  61  92 SW3       29.79S
ROCKSPRINGS    CLOUDY    61  46  59 MISG      29.82F
HONDO          TSTM      57  53  86 W13G33    29.81R
UVALDE         CLOUDY    68  50  52 NW14      29.78R
DEL RIO        CLOUDY    61  54  77 W7        29.75S
$$

SOUTHEAST TEXAS

CITY           SKY/WX    TMP DP  RH WIND       PRES   REMARKS
COLLEGE STN    LGT RAIN  65  64  97 SE12      29.79F
CALDWELL       DRIZZLE   64  64 100 SE7       29.81
CROCKETT       LGT RAIN  66  66 100 SE14G21   29.83F
BRENHAM        RAIN      68  67  96 S9        29.81R
HUNTSVILLE     HVY RAIN  64  63  96 N6        29.79F FOG
CONROE         LGT RAIN  66  64  93 SE16G23   29.80F
HOUSTON BUSH   CLOUDY    67  66  97 SE15      29.80F FOG
HOUSTON HOBBY  LGT RAIN  65  65 100 E8        29.81S
PERLAND        CLOUDY    67  65  93 SE8       29.83F
WHARTON        MOCLDY    68  65  93 SE12G20   29.80R
$$

THE UPPER TEXAS COAST

CITY           SKY/WX    TMP DP  RH WIND       PRES   REMARKS
ORANGE         CLOUDY   N/A N/A N/A E15G22    29.89S
PORT ARTHUR    LGT RAIN  65  63  93 E16       29.86S
GALVESTON      LGT RAIN  67  66  97 VRB3      29.84S
ANGLETON       CLOUDY    67  67 100 SE10      29.81S
BAY CITY         N/A     70  67  91 SE15G21   29.79F
$$

TEXAS COASTAL BEND, RIO GRANDE PLAINS DEEP SOUTH TEXAS

CITY           SKY/WX    TMP DP  RH WIND       PRES   REMARKS
VICTORIA       CLOUDY    71  68  90 S12       29.78R
BEEVILLE       FAIR      71  70  95 S8        29.81R
ROCKPORT       MOCLDY    70  68  93 S6        29.77R
PORT ARANSAS   CLOUDY    69  68  96 CALM      29.78R FOG
PORT LAVACA    LGT RAIN  69  67  91 S8        29.79R
CORPUS CHRISTI TSTM      72  69  90 S14       29.79R
KINGSVILLE NAS TSTM      73  72  96 S3        29.80R FOG
COTULLA        CLOUDY    72  65  78 N3        29.71F
LAREDO         PTCLDY    65  59  81 E6        29.75R
BROWNSVILLE    CLOUDY    74  71  91 S13       29.73S
PORT ISABEL    CLOUDY    74  71  91 S13       29.72F
HEBBRONVILLE   LGT RAIN  61  60  95 E9        29.74F
MCALLEN        CLEAR     73  68  84 SE12      29.71F
WESLACO        CLEAR     73  66  80 S13       29.71F
FALFURRIAS     CLOUDY    73  68  82 NW22G33   29.81R
EDINBURG       PTCLDY    75  66  73 SE7       29.72S
$$


USA.gov is the U.S. government's official web portal to all federal, state and local government web resources and services.